This is the latest recevied weather packets stored in our database for station/object CA4LJZ-10. If no packets are shown the sender has not sent any weather packets the latest 10 day(s).
| Time | Temp. | Humidity | Pressure | Rain* | Wind** | Luminosity | Snow |
|---|---|---|---|---|---|---|---|
| 1777771160 | 16.67° C | 46% | 954.7 hPa | - | - | - | - |
| 1777770259 | 17.22° C | 45% | 954.6 hPa | - | - | - | - |
| 1777769358 | 17.78° C | 44% | 954.9 hPa | - | - | - | - |
| 1777768689 | 17.22° C | 45% | 955 hPa | - | - | - | - |
| 1777768458 | 17.22° C | 45% | 955 hPa | - | - | - | - |
| 1777767723 | 17.22° C | 45% | 954.8 hPa | - | - | - | - |
| 1777767557 | 17.22° C | 45% | 954.8 hPa | - | - | - | - |
| 1777766656 | 17.78° C | 45% | 954.6 hPa | - | - | - | - |
| 1777765755 | 18.33° C | 44% | 954.4 hPa | - | - | - | - |
| 1777764854 | 18.33° C | 43% | 954.3 hPa | - | - | - | - |
| 1777763953 | 18.89° C | 40% | 954 hPa | - | - | - | - |
| 1777763052 | 19.44° C | 39% | 953.7 hPa | - | - | - | - |
| 1777762151 | 19.44° C | 39% | 953.3 hPa | - | - | - | - |
| 1777761250 | 20.56° C | 38% | 953.1 hPa | - | - | - | - |
| 1777760349 | 22.22° C | 36% | 952.8 hPa | - | - | - | - |
| 1777759472 | 22.22° C | 33% | 952.9 hPa | - | - | - | - |
| 1777758571 | 23.33° C | 30% | 952.7 hPa | - | - | - | - |
| 1777757670 | 23.89° C | 29% | 952.7 hPa | - | - | - | - |
| 1777756769 | 25° C | 27% | 952.7 hPa | - | - | - | - |
| 1777755868 | 26.11° C | 26% | 952.6 hPa | - | - | - | - |
| 1777754968 | 27.22° C | 25% | 952.6 hPa | - | - | - | - |
| 1777754066 | 27.22° C | 24% | 952.6 hPa | - | - | - | - |
| 1777753165 | 27.78° C | 21% | 952.5 hPa | - | - | - | - |
| 1777752264 | 28.89° C | 20% | 952.6 hPa | - | - | - | - |
| 1777751363 | 28.33° C | 22% | 952.5 hPa | - | - | - | - |
* Rain since midnight (hover to see other rain measurements)
** Current wind speed in m/s (hover to see current wind gust speed)